This demonstration page uses our WeatherBlox Daily Observations layout. Learn more.

Left ArrowRight Arrow

38.89511, -77.03637

Hourly Observations for June 6, 2022

Temp ( °F °C ) Dew Point ( °F °C ) Humidity (%) Winds ( mph kmh ) Pressure ( in mb ) Visibility ( mi km ) Precip ( " mm )
12:52 am 00:52 Mostly Cloudy 67 19.4 51 10.6 57 57 SSE 5 7 30.01 1016 10 16 0.00 0.00
1:52 am 01:52 Mostly Cloudy 67 19.4 51 10.6 57 57 Calm 30.02 1017 10 16 0.00 0.00
2:52 am 02:52 Partly Cloudy 65 18.3 51 10.6 61 61 Calm 30.02 1017 10 16 0.00 0.00
3:52 am 03:52 Partly Cloudy 65 18.3 51 10.6 61 61 Calm 30.02 1017 10 16 0.00 0.00
4:52 am 04:52 Mostly Clear 63 17.2 51 10.6 65 65 Calm 30.01 1016 10 16 0.00 0.00
5:52 am 05:52 Sunny 62 16.7 52 11.1 70 70 WSW 3 6 30.03 1017 10 16 0.00 0.00
6:52 am 06:52 Sunny 65 18.3 53 11.7 66 66 Calm 30.05 1018 10 16 0.00 0.00
7:52 am 07:52 Sunny 68 20 54 12.2 61 61 Calm 30.06 1018 10 16 0.00 0.00
8:52 am 08:52 Sunny 70 21.1 54 12.2 57 57 SE 5 7 30.08 1019 10 16 0.00 0.00
9:52 am 09:52 Sunny 74 23.3 47 8.3 38 38 S 7 11 30.07 1018 10 16 0.00 0.00
10:52 am 10:52 Sunny 76 24.4 52 11.1 43 43 S 8 13 30.08 1019 10 16 0.00 0.00
11:52 am 11:52 Mostly Sunny 78 25.6 46 7.8 32 32 SSW 12 19 30.08 1019 10 16 0.00 0.00
12:52 pm 12:52 Sunny 79 26.1 46 7.8 31 31 S 10 17 30.07 1018 10 16 0.00 0.00
1:52 pm 13:52 Mostly Sunny 80 26.7 45 7.2 29 29 S 14 22 30.06 1018 10 16 0.00 0.00
2:52 pm 14:52 Mostly Sunny 81 27.2 46 7.8 29 29 S 16 26 30.04 1017 10 16 0.00 0.00
3:52 pm 15:52 Partly Cloudy 81 27.2 48 8.9 32 32 S 10 17 30.04 1017 10 16 0.00 0.00
4:52 pm 16:52 Mostly Cloudy 81 27.2 51 10.6 35 35 S 16 26 30.02 1017 10 16 0.00 0.00
5:52 pm 17:52 Sunny 79 26.1 50 10 36 36 S 10 17 30.00 1016 10 16 0.00 0.00
6:52 pm 18:52 Mostly Cloudy 77 25 51 10.6 40 40 SE 14 22 30.00 1016 10 16 0.00 0.00
7:52 pm 19:52 Mostly Cloudy 75 23.9 47 8.3 37 37 SSE 12 19 30.00 1016 10 16 0.00 0.00
8:52 pm 20:52 Mostly Cloudy 72 22.2 47 8.3 41 41 SSE 12 19 30.02 1017 10 16 0.00 0.00
9:52 pm 21:52 Mostly Cloudy 71 21.7 49 9.4 46 46 S 10 17 30.05 1018 10 16 0.00 0.00
10:52 pm 22:52 Mostly Cloudy 69 20.6 53 11.7 57 57 S 10 17 30.06 1018 10 16 0.00 0.00
11:52 pm 23:52 Mostly Cloudy 68 20 54 12.2 61 61 SSE 15 24 30.05 1018 10 16 0.00 0.00

Powered by AerisWeather